Regional Weather Roundup
Issued by NWS New Orleans/Baton Rouge, LA

Home | Current Version | Previous Version | Graphics & Text | Print | Product List | Glossary On
Versions: 1 2 3 4 5 6 7 8 9 10 11 12 13 14 15 16 17 18 19 20 21 22 23 24 25 26 27 28 29 30 31 32 33 34 35 36 37 38 39 40 41 42 43 44 45 46 47 48 49 50
543
ASUS44 KLIX 190505
RWRLIX
NEW ORLEANS REGIONAL WEATHER ROUNDUP
NATIONAL WEATHER SERVICE NEW ORLEANS LA
1200 AM CDT FRI SEP 19 2014

NOTE: "FAIR" INDICATES FEW OR NO CLOUDS BELOW 12,000 FEET WITH NO
      SIGNIFICANT WEATHER AND/OR OBSTRUCTIONS TO VISIBILITY.
      SKY/WX - SKY CONDITION AND SIGNIFICANT WEATHER.
      TMP - AIR TEMPERATURE.     DP    - DEWPOINT TEMPERATURE.
      RH  - RELATIVE HUMIDITY.   PRES  - PRESSURE.
      HI  - HEAT INDEX.          WCI   - WIND CHILL INDEX.

*  THESE STATIONS ARE NOT NWS OR FAA STATIONS AND ARE NOT UNDER
   NWS QUALITY CONTROL.

LAZ038-040-048-061>063-065>067-069-190600-
SOUTHEAST LOUISIANA

CITY           SKY/WX    TMP DP  RH WIND       PRES   REMARKS
N.O. AUDUBON     N/A     79  73  81 MISG        N/A
N.O. INTL ARPT CLOUDY    79  71  76 CALM      29.93R
N.O. LAKEFRONT CLOUDY    76  71  85 SE14G20   29.94R HAZE
N.O. DOWNTOWN* CLOUDY    79  70  73 NE6       29.94R
SLIDELL        LGT RAIN  72  70  93 N3        29.93S
BATON ROUGE    CLOUDY    73  70  90 E9        29.94S
BOOTHVILLE     CLOUDY    79  74  84 E7        29.93S
BELLE CHASSE   CLOUDY    76  72  87 CALM      29.92S
BOGALUSA*        N/A     73  68  83 N5        29.97R
GALLIANO*      NOT AVBL
NEW ROADS*     CLOUDY    72  71  97 CALM      29.94S FOG
GONZALES*      CLOUDY    73  73 100 N3        29.93R
HAMMOND*       CLOUDY    72  68  88 CALM      29.95F
HOUMA*         CLOUDY    74  69  86 CALM      29.92S
PORT FOURCHON* PTCLDY    81  75  83 CALM      29.95S

$$

MSZ070-080>082-190600-
SOUTHERN MISSISSIPPI

CITY           SKY/WX    TMP DP  RH WIND       PRES   REMARKS
MCCOMB         LGT RAIN  71  69  93 N3        29.98S
GULFPORT       LGT RAIN  73  70  90 NE5       29.96R
BILOXI         LGT RAIN  73  70  88 N3        29.96R
PASCAGOULA     CLOUDY    72  69  90 CALM      29.94S

$$

COASTAL OBSERVATIONS
LAKE AND NEARSHORE STATIONS

STATION/POSITION TIME  TEMP    WIND        PRES    WAVE
                       AIR SEA DIR/SP/G            HT/PER
                 (UTC) (F)     (DEG/KT/KT) (MB)    (FT/S)
PASCAGOULA       0500   79      30/  5/  7 1013.3
WAVELAND YACHT   0500   77     180/  9/ 13 1013.2
GRAND ISLE       0500   80 86  320/  3/  5 1013.8
SOUTHWEST PASS   0500   78 91   80/ 19/ 21 1013.6
NEW CANAL        0500   79 82   80/  2/  6 1013.8
SHELL BEACH      0500   78 81   70/ 11/ 15 1013.4

OFFSHORE STATIONS

STATION/POSITION TIME  TEMP    WIND        PRES    WAVE
                       AIR SEA DIR/SP/G            HT/PER
                 (UTC) (F)     (DEG/KT/KT) (MB)    (FT/S)
64 S DAUPHIN ISL 0425   78 85   60/  6/ 10 1014.0    1

$$




USA.gov is the U.S. government's official web portal to all federal, state and local government web resources and services.